Simultaneous Nadir Overpasses (SNOs) Predictions

Prediction of SNOs between FY3D and NOAA-19 Satellite Orbit:

Table of predicted SNOs for the next 14.0 days since TLE Epoch: 6/5/2021
Index Date (FY3D) Time (FY3D) Lat,Lon (FY3D) SZA (FY3D ) Date (NOAA-19) Time (NOAA-19) Lat,Lon (NOAA-19) SZA (NOAA-19 ) Distance(km) Time Diff (sec)
1 06/05/2021 21:11:12 78.31,-161.43 56.66 06/05/2021 21:10:03 78.30,-163.75 56.90 52.43 69
2 06/05/2021 22:02:00 -78.48, 4.89 123.11 06/05/2021 22:00:53 -78.51, 4.85 123.05 3.27 67
3 06/05/2021 22:52:46 78.50, 172.06 56.93 06/05/2021 22:51:58 78.50, 172.00 56.95 1.50 48
4 06/05/2021 23:43:30 -78.52, -20.72 123.05 06/05/2021 23:42:53 -78.52, -20.57 123.05 3.39 37
5 06/06/2021 00:34:15 78.50, 146.68 56.92 06/06/2021 00:33:58 78.51, 146.58 56.94 2.18 17
6 06/06/2021 01:24:59 -78.52, -46.10 123.06 06/06/2021 01:24:53 -78.53, -45.99 123.06 2.88 6
7 06/06/2021 02:15:44 78.51, 121.30 56.92 06/06/2021 02:15:58 78.52, 121.17 56.94 3.31 14
8 06/06/2021 03:06:27 -78.52, -71.49 123.06 06/06/2021 03:06:52 -78.54, -71.40 123.06 2.98 25
9 06/06/2021 03:57:13 78.55, 95.68 56.97 06/06/2021 03:57:57 78.53, 95.75 56.94 2.11 44
10 06/06/2021 04:47:56 -78.52, -96.87 123.07 06/06/2021 04:48:52 -78.56, -96.82 123.07 3.63 56
11 06/06/2021 05:38:43 78.59, 70.07 57.02 06/06/2021 05:39:57 78.54, 70.33 56.93 7.41 74



Historial Predications of SNOs between FY3D and NOAA-19
